Wind_Speed
4 5 5 6 4 4 7 10 5 1 3 8 7 5 5 4 2 3 5 4 5 3 6 6 8 10 11 12 13 14 14 12 12 12 11 11 10 10 10 9 9 9 8 9 11 12 12 12 12 11 11 12 12 12 13 14 13 12 12 11 10 9 8 7 6 6 5 5 5 5 6 6 6 6 6 7 8 7 7 7 7 7 7 7 7 7
3 6 7 6 3 3 5 8 3 1 6 8 6 5 4 3 2 2 5 6 3 1 3 5 8 10 11 12 12 14 15 14 14 13 12 12 11 9 10 10 9 8 7 8 10 11 12 12 12 12 11 13 13 13 14 14 14 14 13 12 11 10 10 8 8 7 6 5 5 5 6 6 7 7 6 7 8 7 7 8 7 8 7 7 7 7
5 7 8 4 2 2 1 4 4 2 5 7 4 4 4 3 4 4 5 7 4 1 2 3 6 8 9 11 11 12 14 14 14 13 12 13 12 10 10 10 9 9 8 8 10 11 12 12 13 13 12 13 13 13 14 14 14 14 14 13 12 12 11 10 9 8 6 6 5 4 4 5 6 8 7 7 7 7 7 8 8 8 7 7 7 7
5 5 6 3 4 5 3 4 5 2 3 4 3 3 3 6 5 2 4 7 5 1 3 4 4 5 7 9 9 9 10 10 11 12 10 11 12 12 12 11 11 11 9 9 10 11 13 13 14 13 13 13 13 13 14 14 15 15 16 15 14 14 13 11 10 9 8 6 6 5 4 5 6 7 8 7 7 7 7 8 8 8 8 8 7 6
4 1 2 4 5 5 4 4 5 4 3 3 4 5 4 8 7 4 7 8 5 2 4 7 4 4 7 9 10 7 6 8 10 11 11 10 11 11 11 11 11 11 10 10 10 11 13 14 14 14 13 13 13 14 15 15 16 15 17 17 16 15 14 13 12 11 9 8 7 7 4 5 6 7 7 7 7 8 8 8 8 8 8 8 7 6
4 2 4 5 4 4 4 5 5 5 3 2 5 6 6 10 9 9 11 9 4 3 6 8 4 4 8 10 12 9 7 10 11 11 13 12 11 10 10 11 11 10 10 10 10 11 13 14 14 14 14 14 14 15 15 15 15 15 17 18 17 16 15 14 14 12 11 10 9 9 6 6 7 6 8 8 8 8 9 8 8 9 8 8 7 6
2 3 4 4 5 6 5 5 4 4 4 1 3 5 8 10 10 13 13 7 3 2 6 9 4 2 7 10 12 11 12 13 11 12 14 12 10 10 10 10 10 10 10 10 11 12 14 14 14 15 16 16 16 15 15 15 15 15 18 19 18 17 16 16 15 13 12 12 11 10 9 9 9 8 9 10 9 9 9 8 9 9 9 8 8 7
3 4 3 3 4 5 5 5 4 6 5 0 1 6 11 11 11 13 10 4 1 3 5 7 2 0 4 7 10 12 12 13 12 12 12 11 11 12 12 12 11 11 11 10 11 12 14 16 16 17 18 18 17 15 15 16 16 17 20 20 18 18 18 17 16 14 13 13 12 12 10 10 10 9 10 11 10 10 9 9 9 9 9 9 9 8
3 6 6 5 4 4 5 3 5 8 4 2 1 7 10 10 10 11 8 4 2 2 4 6 4 1 0 3 8 10 11 13 15 15 13 12 13 13 13 13 13 12 11 11 11 13 15 17 18 19 19 18 17 16 18 17 17 18 20 21 19 19 19 18 17 15 14 13 13 13 11 11 11 9 9 11 11 10 9 9 9 9 9 9 9 8
1 4 5 7 5 5 4 2 6 9 3 3 7 9 8 6 6 6 5 4 3 1 4 7 7 3 0 2 7 9 12 14 14 14 13 11 12 13 13 14 14 12 10 11 12 15 17 19 20 19 17 18 17 16 17 17 17 19 20 21 21 20 20 19 18 16 14 14 14 14 13 12 12 11 10 10 10 10 9 9 9 8 9 9 9 9
1 1 2 4 5 5 3 2 4 7 9 11 12 11 9 7 5 3 1 1 2 2 2 9 11 5 2 4 8 8 8 11 11 10 12 11 11 12 12 13 13 11 10 10 12 15 17 18 17 17 17 17 16 15 16 16 17 19 21 22 22 22 21 20 19 17 15 15 16 15 14 13 12 11 11 10 10 11 10 9 9 8 9 9 9 9
1 1 2 3 4 3 3 4 2 7 14 11 8 9 7 5 3 2 2 0 3 2 1 6 11 7 4 4 7 8 6 10 12 11 14 13 12 12 11 13 13 11 11 11 11 12 13 14 14 15 16 15 15 15 17 17 18 20 22 24 23 23 23 21 20 19 17 17 17 16 14 13 11 10 11 10 11 11 11 9 9 8 8 9 9 9
3 4 3 3 3 5 5 5 4 8 12 8 7 9 5 3 2 2 1 2 4 2 2 5 11 7 4 2 5 9 9 12 12 11 14 15 14 12 12 12 11 10 11 12 10 9 10 12 14 16 16 15 16 17 18 18 18 20 23 25 25 25 24 23 21 20 19 18 18 16 15 12 11 10 11 11 11 11 11 10 9 8 8 9 9 9
4 3 4 5 3 6 8 5 6 7 7 8 9 7 5 4 3 2 2 2 3 2 1 6 9 4 3 3 4 8 10 12 12 10 12 13 13 12 12 12 10 10 10 10 10 10 10 13 16 17 17 17 18 18 19 19 19 20 22 25 27 26 26 24 23 22 21 20 19 17 16 14 11 10 10 11 11 11 11 10 9 8 8 8 8 9
4 2 6 9 4 6 10 8 8 9 7 8 7 6 6 5 3 3 4 3 1 2 4 7 6 3 2 2 1 5 7 8 11 10 7 6 7 9 9 9 10 10 10 8 10 11 13 16 17 17 18 18 19 19 19 18 20 21 22 26 27 26 27 26 24 24 22 22 20 18 17 15 14 11 10 11 11 11 11 10 9 8 7 7 7 8
3 2 4 4 2 7 11 8 9 10 8 6 4 5 6 5 4 1 1 1 2 4 4 4 3 1 1 1 4 4 5 8 10 11 8 6 7 8 8 9 9 10 9 9 9 11 13 16 16 16 18 18 17 18 19 18 21 23 23 26 28 27 27 27 26 25 24 23 22 20 19 17 16 13 11 11 10 11 11 10 9 8 6 6 6 6
2 1 2 2 2 8 10 11 12 10 7 5 5 6 3 1 3 1 1 2 1 3 3 3 3 1 1 3 2 2 5 9 12 12 10 9 9 9 9 9 9 8 9 10 9 10 12 14 15 16 16 16 17 18 19 21 23 25 25 26 27 25 26 27 27 26 25 24 23 22 21 19 18 15 12 10 9 9 10 10 9 8 7 7 6 6
2 2 1 4 6 5 4 10 11 7 5 6 7 7 5 2 0 0 1 3 2 4 2 3 5 3 1 1 1 4 7 10 13 14 13 11 10 9 8 8 8 7 8 9 9 10 12 14 15 16 16 17 18 19 21 22 23 23 25 25 25 26 26 27 26 26 26 25 23 23 22 21 19 17 13 10 9 9 10 10 9 8 8 7 7 7
2 4 1 3 4 3 5 8 7 4 2 1 5 8 5 2 3 2 2 3 4 3 1 2 4 4 4 3 3 7 9 10 13 14 15 15 12 10 10 9 8 7 6 7 7 7 9 13 15 16 16 16 18 17 18 19 19 20 22 23 23 24 25 25 24 24 25 25 23 22 23 22 20 18 15 12 10 10 10 10 9 8 8 7 7 7
1 2 1 2 2 5 7 7 7 7 3 1 4 8 3 2 3 3 2 2 4 3 2 2 2 4 4 2 5 9 9 11 14 13 14 15 13 10 10 9 8 7 5 5 6 6 7 10 13 15 16 16 17 17 16 17 18 19 20 21 20 19 20 22 23 25 25 24 23 22 22 22 21 19 16 14 11 10 11 11 10 9 8 7 7 6
1 2 1 2 2 4 6 5 7 10 9 5 6 8 4 1 1 2 1 0 1 2 2 2 2 2 1 1 3 7 9 11 13 13 13 13 11 9 7 7 7 6 6 5 5 6 7 8 10 12 13 14 15 15 15 17 18 18 18 19 20 19 19 21 23 25 25 24 23 22 21 21 21 19 17 15 14 12 12 12 11 10 9 8 8 7
1 1 2 0 2 5 3 1 4 7 9 9 8 8 7 5 3 5 4 1 0 1 1 1 2 1 3 2 1 5 8 9 11 12 12 11 10 8 6 5 5 5 5 5 5 6 7 8 9 10 11 12 13 14 16 16 16 17 17 18 19 18 19 21 22 23 24 24 23 22 19 18 19 19 18 16 15 14 13 14 14 12 10 9 9 8
0 1 2 2 2 2 0 1 2 3 2 4 4 6 8 7 6 7 6 3 2 1 1 0 1 1 2 1 2 5 7 7 9 11 11 11 10 8 7 6 5 4 4 5 5 5 7 7 8 9 10 12 14 16 17 18 17 18 19 21 21 20 21 22 22 21 22 23 22 20 18 17 17 18 17 17 17 16 14 14 15 15 12 10 9 9
1 0 1 2 0 1 1 2 2 1 2 3 1 2 6 5 4 3 2 4 5 4 2 2 2 1 2 2 3 6 7 6 7 8 9 10 9 7 8 7 6 6 6 5 5 5 7 8 7 8 9 11 13 16 18 20 20 20 21 22 21 21 21 21 21 20 20 21 20 19 18 17 16 15 16 16 16 16 15 13 14 16 15 11 9 9
1 1 1 1 3 3 3 4 4 2 2 2 1 1 2 3 5 4 3 3 5 3 2 4 3 2 3 4 5 7 9 8 7 7 7 8 8 8 8 8 7 7 6 5 5 6 7 8 8 8 9 11 13 16 20 21 21 21 22 21 20 20 19 18 18 18 17 17 18 18 18 16 14 14 15 16 15 15 15 12 12 14 15 13 10 9
0 1 1 2 4 5 4 4 3 2 1 0 1 2 2 4 7 5 3 3 5 2 2 3 2 3 4 6 8 9 10 9 7 7 7 7 7 8 7 7 6 6 7 7 6 7 8 8 10 10 10 11 12 14 17 19 19 19 19 19 18 17 15 14 14 13 13 13 13 15 17 16 15 14 14 14 14 13 13 13 12 12 13 14 13 11
1 2 2 2 2 1 0 1 1 1 1 1 1 3 2 2 2 3 3 4 4 4 4 3 2 5 8 10 10 11 10 10 9 8 8 7 7 7 6 6 6 5 6 7 6 6 7 8 10 12 12 11 10 10 11 12 13 14 17 17 15 11 10 11 12 10 9 9 9 10 13 13 13 13 12 13 13 12 11 10 10 10 11 12 13 13
2 3 3 4 5 4 2 2 1 0 1 2 2 2 2 1 1 4 5 3 6 6 4 3 6 8 11 13 13 12 11 10 9 9 9 8 8 8 7 7 7 7 7 6 6 7 8 9 9 11 12 11 11 11 11 11 11 12 13 12 10 8 8 10 13 13 10 9 7 8 10 10 11 13 15 15 15 14 11 9 10 11 11 11 11 12
2 2 3 2 3 3 4 4 3 3 3 4 5 4 2 1 2 3 2 3 6 4 2 7 12 10 10 14 15 13 11 10 10 10 9 9 9 9 9 9 8 8 8 8 6 7 9 9 9 11 12 11 12 14 14 13 11 11 10 10 10 11 9 8 12 14 13 10 7 7 9 10 12 15 16 16 15 14 13 12 12 12 12 12 11 11
1 1 1 0 1 4 6 6 6 5 5 8 9 9 7 3 2 2 2 3 3 2 1 9 13 8 7 13 15 13 12 11 10 10 9 10 10 10 10 10 9 8 8 8 7 7 8 9 10 12 11 11 13 14 13 12 11 11 11 10 11 12 10 8 11 11 10 10 10 11 11 11 12 15 17 17 16 15 15 15 14 12 13 13 13 13
1 1 1 1 1 4 8 7 6 4 4 8 11 11 10 6 3 3 3 3 3 3 3 8 9 5 6 12 14 13 12 12 11 11 10 10 11 11 10 10 10 9 8 9 9 8 8 8 9 10 10 11 13 15 14 12 11 11 12 11 11 12 10 10 10 8 8 11 13 15 14 13 14 15 15 15 16 16 16 16 16 15 15 13 13 14
3 1 1 0 2 3 7 7 5 2 1 5 11 13 12 6 1 1 1 0 1 5 9 8 5 4 8 13 13 12 13 13 12 12 11 10 11 12 11 10 10 10 9 9 10 9 9 10 11 12 13 15 16 16 14 12 11 12 14 15 16 17 13 9 7 7 7 9 11 12 14 14 14 13 12 13 13 13 14 15 17 17 17 15 14 13
2 0 0 1 1 2 5 6 4 1 3 1 8 11 10 6 3 2 1 1 3 7 9 4 1 4 10 14 15 14 14 13 12 11 11 11 12 12 11 11 10 10 10 9 10 11 12 13 14 14 15 17 20 20 19 18 17 17 18 19 20 21 18 14 12 12 12 9 7 6 8 10 10 9 9 9 10 9 9 10 11 13 14 14 15 13
2 1 1 1 1 1 3 3 2 1 1 1 5 7 6 5 5 4 2 2 3 3 0 1 2 8 13 15 16 15 13 12 11 10 9 9 10 11 12 11 11 11 11 10 10 12 14 16 17 17 18 20 22 22 24 24 25 24 24 23 23 23 22 21 19 18 15 13 12 10 10 10 9 8 7 7 7 6 6 6 5 6 6 7 8 9
1 1 1 1 0 0 2 1 2 0 2 1 2 5 3 2 3 3 1 3 2 1 2 1 6 11 14 14 14 14 12 11 9 8 8 9 9 10 11 11 11 12 11 9 9 11 15 17 17 17 21 24 24 24 26 28 29 28 25 24 25 25 23 22 22 20 18 17 15 14 13 13 13 11 10 8 7 8 8 7 6 6 5 4 4 4
2 1 1 1 1 1 2 2 3 1 2 1 1 5 5 2 4 3 1 2 2 3 1 4 7 11 14 15 14 13 12 11 9 6 6 8 8 9 10 11 12 12 12 11 10 11 14 17 17 17 20 24 26 26 28 30 31 29 27 26 26 26 24 23 22 21 20 19 17 15 13 12 13 13 12 10 8 8 9 9 8 7 6 5 3 2
2 1 1 1 1 0 2 2 1 1 1 2 2 4 4 3 5 4 2 1 1 2 3 6 10 13 15 15 15 14 13 11 8 5 5 6 7 7 10 12 13 14 15 15 14 15 16 16 19 20 22 24 26 26 28 30 31 31 29 27 26 26 26 24 21 20 20 20 19 17 15 14 12 12 12 10 9 9 10 9 9 9 9 8 8 7
2 1 1 1 1 1 1 2 2 3 2 1 1 1 2 2 4 4 3 0 1 2 5 10 13 15 16 16 16 16 14 11 7 5 4 6 7 8 10 13 14 15 15 15 16 17 17 17 20 24 26 26 26 26 27 28 28 29 27 24 24 25 25 22 20 19 20 20 19 19 18 17 15 13 11 9 8 9 10 10 9 10 11 12 13 14
4 3 1 1 2 0 2 2 2 2 2 3 5 5 4 3 2 2 3 0 3 1 6 12 14 15 16 16 17 16 13 10 8 6 6 7 8 9 10 12 13 14 14 15 15 16 18 21 24 25 26 26 25 25 25 25 26 27 26 23 22 23 22 21 20 20 20 19 19 19 19 19 18 15 12 11 11 11 11 12 11 11 12 14 14 14
4 3 1 1 2 1 2 2 1 1 3 4 8 11 9 2 3 2 3 2 5 3 6 11 14 15 15 15 17 14 9 7 9 9 9 10 9 9 10 11 12 13 14 15 16 17 20 23 23 21 22 24 23 22 22 22 23 25 24 22 22 21 20 20 20 19 18 18 18 18 18 19 19 18 16 16 15 15 14 14 14 14 14 14 14 13
2 2 2 1 2 1 1 2 1 2 2 5 10 12 9 2 3 1 2 3 5 6 5 10 13 14 14 14 14 9 3 5 10 12 13 14 12 11 12 12 13 14 14 15 16 18 19 21 21 20 20 21 21 20 19 19 20 20 19 19 18 17 16 17 17 16 16 16 16 16 16 17 18 18 18 18 18 17 17 17 17 16 16 15 14 13
1 1 1 1 1 1 0 1 1 2 3 7 12 10 6 2 2 2 4 3 5 6 5 8 11 12 11 10 7 5 5 9 12 12 12 13 12 12 12 13 13 14 15 15 17 17 18 18 18 19 18 18 17 17 15 17 18 17 16 16 15 13 13 14 14 14 14 14 14 14 14 14 15 15 15 15 16 16 16 16 16 17 17 17 17 16
2 1 1 1 1 0 1 1 1 2 3 10 12 6 2 3 2 3 6 5 3 4 5 5 7 9 9 9 9 9 10 10 11 12 11 11 12 14 14 13 12 13 15 15 16 16 17 17 15 15 14 13 14 14 13 15 16 15 15 15 14 12 12 12 11 11 12 13 13 13 12 12 12 12 13 12 12 13 13 13 13 14 15 16 16 15
1 1 1 1 0 1 1 2 2 2 4 9 8 3 3 5 4 4 5 5 3 2 3 3 3 4 7 9 11 13 13 12 11 12 11 10 11 13 14 13 12 12 13 14 14 16 18 17 15 14 13 13 13 13 12 13 15 15 14 14 13 12 12 11 10 10 10 11 11 11 11 11 10 11 11 11 11 11 11 11 11 11 12 12 12 11
1 2 1 1 1 1 2 2 2 2 3 5 4 2 5 6 5 5 4 4 3 2 1 2 3 4 6 9 12 14 14 14 15 14 13 12 12 13 16 17 14 12 13 13 14 15 17 17 16 15 14 13 13 13 12 12 13 14 14 13 12 11 10 10 10 11 10 10 10 9 9 9 9 9 9 9 9 9 9 9 9 10 10 9 9 9
1 1 1 1 1 1 2 2 2 2 4 5 4 2 4 6 6 5 4 2 3 3 1 0 3 6 6 6 9 10 10 13 16 16 15 14 14 15 18 20 18 15 14 14 14 15 16 16 16 15 14 13 13 12 12 11 11 13 13 11 10 9 8 9 10 11 10 10 8 7 7 6 7 7 7 7 7 7 7 7 7 8 9 8 8 8
1 1 0 1 2 2 1 3 3 4 6 7 5 4 6 8 7 6 5 4 4 3 2 3 4 5 5 6 6 5 4 5 8 11 12 13 14 15 17 18 18 17 17 17 17 18 16 14 14 13 13 13 12 11 10 10 9 10 10 9 8 7 7 7 8 9 9 8 7 6 6 5 5 5 5 5 5 6 6 6 6 7 7 7 7 7
0 1 0 1 1 0 1 2 1 2 5 8 7 6 6 8 8 9 8 6 6 6 6 7 6 6 8 8 9 9 9 8 7 6 5 4 7 11 13 14 16 18 19 20 20 18 15 13 12 12 12 12 12 11 10 10 9 8 7 7 6 6 7 8 8 8 7 6 6 6 5 5 5 4 4 5 5 5 5 5 5 6 7 7 7 6
2 1 1 1 1 2 2 2 2 1 3 8 9 8 6 6 8 10 10 10 10 9 8 9 9 8 8 8 9 10 9 6 6 7 6 5 5 6 7 8 11 14 18 21 21 19 16 15 13 12 12 12 12 12 12 11 10 9 8 8 7 7 8 9 8 7 6 6 5 5 5 4 4 4 4 5 5 6 7 6 5 6 7 7 7 6
1 1 0 1 1 2 2 2 1 1 2 5 7 6 5 6 9 11 12 12 11 10 8 8 8 8 6 5 6 9 8 6 8 9 8 8 10 11 10 11 12 14 17 19 19 19 18 18 16 15 15 15 14 13 13 13 12 11 10 10 9 9 9 9 8 7 6 5 5 5 5 5 5 5 5 5 6 7 8 9 8 7 7 7 7 6
1 1 0 0 2 2 3 2 1 1 3 3 2 3 4 5 7 10 10 10 10 10 9 8 7 6 5 4 2 4 5 6 10 12 10 10 14 16 18 19 19 21 22 20 17 16 17 17 17 17 18 17 15 14 14 13 13 12 11 10 10 9 9 8 7 6 6 5 5 5 5 5 6 6 6 6 6 7 8 8 8 7 6 5 5 5
Wind_Direction
186 179 195 214 200 169 187 204 211 13 187 174 162 164 167 167 165 136 126 171 230 180 147 162 156 156 161 165 171 175 180 182 179 175 173 173 175 179 184 188 190 197 197 182 177 182 184 187 186 185 183 179 177 177 179 182 184 184 180 178 178 179 182 182 184 185 186 185 179 181 182 176 172 168 166 171 174 175 178 178 173 168 159 148 148 150
198 197 213 221 179 165 201 199 185 123 172 168 160 161 158 155 142 108 125 158 225 352 119 145 153 163 164 164 171 175 182 190 188 182 178 178 178 181 187 191 193 199 198 182 179 180 182 186 185 185 186 182 180 180 182 184 185 187 187 184 180 179 182 184 188 188 188 192 192 192 187 176 170 169 165 170 178 181 187 188 183 179 171 159 158 158
193 214 222 216 145 162 191 193 198 179 169 170 167 165 152 141 130 92 113 157 178 82 114 142 159 165 160 163 169 178 189 194 193 189 185 181 179 185 189 191 197 199 196 192 185 179 181 183 182 185 188 189 186 183 185 187 186 187 188 188 188 190 190 186 188 193 198 202 201 203 197 179 171 173 171 172 178 180 185 191 187 184 180 172 167 163
183 227 228 174 147 174 151 172 198 192 180 181 179 187 161 158 166 126 138 163 164 165 167 151 156 161 156 162 170 186 194 191 192 192 190 187 183 187 191 192 197 197 195 195 188 180 180 180 182 187 187 188 188 185 187 188 187 189 191 193 194 198 200 196 196 201 207 212 208 211 216 195 184 182 179 174 175 178 179 185 187 187 186 180 174 168
177 35 185 142 151 183 167 163 185 195 195 179 196 213 176 171 180 146 142 149 142 185 164 141 153 186 174 175 178 187 192 184 187 189 193 198 194 190 192 196 198 196 194 193 189 180 177 180 184 186 186 187 189 191 191 190 190 190 193 197 197 198 200 199 200 202 202 206 207 208 205 191 188 187 187 181 179 182 180 182 187 189 189 185 182 177
191 116 147 143 147 176 187 192 191 204 212 183 209 220 192 176 160 130 141 147 148 209 176 161 189 198 180 187 186 181 187 190 187 191 196 198 198 193 194 200 201 198 195 192 189 181 181 184 183 182 185 189 194 197 195 193 193 192 195 199 198 197 197 197 200 202 201 203 205 204 191 178 181 183 190 190 185 184 182 182 186 189 189 189 191 190
159 147 166 154 162 170 200 221 189 196 222 218 211 199 177 170 149 142 155 162 164 187 171 179 210 185 176 194 193 183 189 193 189 194 199 195 193 195 196 201 201 199 197 193 191 187 186 185 181 183 189 194 199 197 194 193 191 194 201 203 199 198 197 197 201 204 204 204 203 204 197 188 186 187 195 197 190 188 187 185 186 188 189 190 193 195
139 150 157 145 168 174 204 222 180 188 212 301 9 177 168 166 159 153 160 171 122 98 143 171 194 36 184 191 188 186 190 198 199 199 199 193 191 197 200 200 199 201 199 194 191 190 190 186 185 190 193 197 200 193 192 196 193 197 205 206 202 200 199 198 203 206 208 208 205 202 201 199 195 192 197 198 195 194 193 190 188 187 188 189 190 193
142 174 171 162 187 204 211 209 168 184 207 357 124 167 162 166 165 159 164 162 106 120 170 173 177 187 227 164 173 184 196 204 207 206 200 192 192 197 200 199 200 202 201 197 195 193 191 189 191 194 194 196 196 192 194 197 197 200 205 206 203 202 203 202 203 207 211 212 208 205 202 201 200 198 197 195 196 197 196 195 190 185 186 186 188 190
150 200 177 174 202 224 215 159 171 185 175 96 121 119 116 129 136 149 175 159 114 207 210 182 188 207 163 170 175 188 204 208 207 208 203 194 193 196 197 199 198 196 198 200 200 197 194 194 195 194 192 193 193 193 192 194 198 202 204 206 205 204 205 205 205 207 212 211 208 207 204 200 200 201 199 194 195 199 199 196 190 185 186 185 187 190
61 87 152 191 215 230 210 131 172 168 136 126 121 108 99 96 89 88 130 129 154 233 230 182 188 210 219 190 191 196 201 201 201 206 203 195 192 194 195 197 194 190 193 199 202 201 197 195 194 190 189 190 191 190 187 189 197 202 205 207 207 206 206 206 206 206 210 209 206 207 206 202 203 204 203 199 200 204 204 200 194 190 190 188 187 189
338 173 171 212 215 201 130 95 108 150 143 138 129 127 117 104 108 96 70 337 208 220 335 175 175 192 228 199 199 206 187 186 197 203 200 196 193 194 195 195 192 188 190 195 199 199 194 188 184 185 186 185 185 185 187 189 194 199 206 208 207 208 208 208 208 206 206 205 203 205 207 207 208 209 210 209 208 210 208 205 200 196 194 193 191 192
236 208 189 224 217 188 163 116 123 162 162 159 151 148 141 136 155 162 168 237 234 227 25 168 167 183 235 183 185 207 197 190 197 202 201 198 194 192 192 192 189 184 189 194 193 189 187 184 183 185 182 180 185 188 190 190 190 196 204 208 208 210 210 209 208 207 206 205 205 206 208 211 214 216 220 221 219 218 215 209 205 201 200 199 198 197
206 185 187 207 202 191 189 163 151 168 180 176 164 162 165 159 163 182 194 247 254 230 113 160 170 198 229 147 168 211 212 198 188 193 204 200 192 187 186 188 185 181 187 191 188 184 186 188 188 187 182 183 189 191 191 190 190 194 200 206 208 211 213 211 209 209 208 208 209 210 213 218 220 223 229 230 228 228 225 218 211 208 207 207 208 207
209 199 190 190 173 176 187 185 164 156 176 184 172 177 179 172 177 188 202 222 208 138 118 146 171 228 207 138 241 238 230 207 178 171 184 183 173 171 173 181 183 184 185 185 186 187 190 190 188 186 185 188 189 189 191 191 192 195 198 204 207 209 212 212 211 210 211 211 212 214 217 222 225 229 236 237 236 236 235 230 222 218 215 215 219 217
243 262 192 174 142 175 178 173 159 157 176 185 177 192 192 186 182 139 195 209 109 114 135 160 187 287 260 277 291 259 226 200 168 151 148 145 151 162 170 177 182 185 182 182 187 189 191 190 188 188 188 189 187 186 189 191 195 197 199 204 207 208 211 212 212 212 213 214 216 217 219 222 225 229 236 240 240 239 239 238 234 231 227 225 230 228
240 252 138 113 179 196 178 160 167 178 170 155 189 198 168 140 171 146 103 110 140 180 165 191 222 274 255 251 265 219 196 184 167 155 153 153 155 162 169 172 177 181 179 181 187 187 186 185 187 191 191 188 186 187 191 195 198 200 201 204 205 206 209 211 212 213 214 217 218 219 221 222 223 227 232 237 237 237 239 240 238 236 237 237 239 239
250 255 152 165 197 208 171 157 170 187 153 155 196 176 113 59 6 268 191 146 203 220 160 201 232 235 221 230 178 173 178 178 174 167 161 158 157 162 165 163 164 169 173 181 186 185 183 184 187 191 193 193 191 191 195 197 198 200 203 205 204 206 209 211 212 213 215 218 220 221 222 221 222 225 228 230 233 235 235 234 233 233 240 246 246 243
251 261 202 179 185 132 136 164 172 199 216 188 178 158 145 202 194 176 208 188 197 217 169 189 238 241 221 210 179 179 178 178 178 173 171 167 164 166 166 158 154 154 159 173 180 182 185 189 191 192 193 195 193 193 195 195 194 197 203 206 206 208 211 211 211 214 218 220 221 223 223 222 221 223 226 227 230 234 230 228 229 235 245 252 250 243
254 260 170 130 112 119 152 182 184 185 209 7 151 171 189 265 198 175 197 213 200 200 188 175 219 230 219 191 180 183 179 178 178 178 179 176 169 165 162 158 154 150 147 156 165 171 183 192 195 196 196 196 196 195 195 193 192 195 201 205 205 205 208 209 212 216 220 221 222 225 225 223 221 222 225 226 229 233 232 231 234 239 246 252 252 245
177 251 220 108 116 161 170 194 198 180 176 186 184 185 182 146 189 174 126 305 227 185 176 193 223 210 134 80 187 185 179 180 182 182 182 179 173 161 151 151 149 146 144 144 152 164 174 184 192 197 198 195 194 195 196 196 194 193 197 203 205 204 205 208 212 217 220 221 223 227 226 223 222 223 225 227 230 234 236 239 241 243 247 249 250 249
171 219 255 247 165 183 164 163 226 197 181 190 196 190 184 170 165 183 182 157 310 196 152 201 248 141 104 93 208 186 182 184 183 184 183 180 176 165 149 142 142 149 152 152 158 163 167 175 185 192 193 190 189 193 197 198 193 190 194 201 205 204 206 210 212 215 218 219 223 226 225 223 223 225 227 228 231 234 237 242 245 247 250 253 251 251
260 163 245 270 222 198 157 55 259 254 177 179 205 191 185 183 187 202 200 161 145 137 93 157 277 56 104 124 182 181 181 180 179 182 183 178 172 168 162 153 151 163 170 167 165 156 153 162 173 181 183 185 188 193 198 199 195 192 198 205 207 207 211 214 214 215 218 220 222 225 225 225 226 228 229 229 232 235 237 241 246 248 251 252 251 254
177 158 243 251 239 64 76 114 111 34 162 183 219 180 186 197 198 207 190 159 179 179 145 199 235 139 119 132 156 159 156 163 173 176 178 173 163 160 163 161 162 173 179 176 162 147 148 155 161 170 175 178 186 194 200 202 200 199 203 208 209 209 214 217 217 218 220 221 223 224 225 227 226 227 228 229 233 237 238 240 244 249 251 249 247 249
196 316 308 181 152 135 136 143 140 137 175 188 148 143 192 141 119 113 92 148 198 183 144 223 232 124 122 148 160 159 155 160 166 165 167 166 159 160 161 158 161 169 171 164 156 156 160 160 159 163 170 176 183 192 199 202 201 201 204 209 211 211 215 218 217 218 220 223 225 227 229 228 224 224 228 230 233 239 243 243 242 246 248 246 243 243
98 32 318 215 175 167 164 155 150 152 182 345 102 138 187 148 140 136 123 175 205 161 140 233 240 112 140 165 173 175 170 161 153 154 157 149 146 150 149 148 151 159 164 162 162 165 165 167 165 166 176 182 182 185 192 196 196 195 198 205 210 209 209 213 216 216 216 220 225 231 235 234 229 227 229 231 233 237 242 242 241 243 244 244 245 245
147 85 10 355 64 84 130 49 18 313 288 303 120 137 171 181 152 135 154 189 177 146 175 224 139 148 173 179 180 183 177 161 151 152 151 142 139 140 136 133 130 137 153 155 155 156 160 170 170 171 179 179 172 169 172 176 177 179 187 194 197 192 186 194 202 200 200 208 218 228 234 234 231 229 227 230 234 235 236 238 237 238 238 239 243 245
139 72 13 23 55 47 351 323 310 301 2 356 11 129 153 181 193 187 195 174 138 155 204 182 155 174 183 182 185 185 174 159 154 156 151 144 143 140 136 132 131 134 136 132 147 164 166 169 169 171 173 166 157 153 153 157 159 161 168 170 165 159 155 173 189 191 189 193 203 216 223 224 225 229 233 237 241 239 235 234 235 237 238 238 240 243
117 67 16 28 66 55 23 17 51 95 81 41 30 41 60 4 259 220 208 154 151 192 243 163 171 189 182 177 183 179 166 157 153 155 149 142 142 141 144 146 144 140 130 125 144 166 169 171 169 169 167 154 144 141 143 149 148 141 137 127 126 131 130 157 192 203 203 198 196 209 220 221 222 228 232 233 236 236 236 238 239 240 240 239 239 241
127 65 45 112 72 41 35 41 61 80 83 66 49 37 34 23 354 29 80 123 113 3 356 159 172 185 171 172 176 169 161 154 149 150 146 141 141 142 149 156 152 142 133 131 136 141 153 164 165 165 164 151 140 135 133 134 133 125 118 110 117 129 139 175 201 207 204 202 206 213 217 218 221 225 226 225 226 228 231 234 234 234 237 238 239 240
345 182 164 181 144 36 21 28 51 66 82 71 52 30 23 28 45 64 96 128 83 54 101 145 160 166 162 168 169 163 160 156 154 157 152 146 145 144 149 153 146 138 133 132 130 125 125 130 131 135 136 132 129 125 118 117 115 110 105 101 112 132 159 199 209 199 194 205 216 219 219 222 226 229 229 228 228 229 231 234 235 235 237 238 238 239
360 147 162 208 146 52 5 2 25 38 164 65 36 13 0 357 2 63 71 219 169 132 130 140 169 179 166 168 167 162 164 163 162 163 160 153 150 149 149 144 133 130 133 133 129 122 115 108 103 104 107 110 112 110 108 109 104 97 95 97 108 126 146 171 172 147 151 183 208 218 221 223 228 233 235 233 232 233 233 235 237 238 239 239 239 240
356 39 73 305 163 66 354 345 10 359 215 75 20 352 332 326 317 301 294 247 179 151 142 156 223 146 155 169 171 168 169 169 167 167 165 160 154 149 147 139 127 124 128 126 119 114 108 101 95 90 90 96 100 103 106 106 98 91 93 98 106 116 122 121 115 112 115 129 152 177 193 199 204 209 216 221 224 223 221 223 229 233 236 238 239 238
16 22 26 338 202 56 357 340 345 359 160 86 12 340 310 300 314 312 304 132 148 156 149 328 114 139 159 172 172 169 169 168 167 165 158 155 151 147 142 133 122 120 119 112 107 107 103 98 93 86 85 90 95 100 104 102 98 96 98 102 103 105 107 107 106 106 106 110 113 115 125 138 144 143 149 163 172 171 172 180 190 202 212 224 230 231
40 40 45 36 341 14 22 341 234 198 63 93 13 4 357 294 318 339 76 112 97 354 312 202 156 157 165 167 164 164 164 157 151 145 144 144 140 139 136 127 120 120 115 105 102 104 103 102 100 96 96 98 99 101 102 101 101 101 100 101 101 100 100 100 98 97 97 101 105 109 113 119 121 118 114 118 125 128 134 141 147 160 173 186 201 215
53 85 102 62 346 211 128 154 203 173 60 114 98 29 23 358 348 360 115 126 19 325 261 164 158 160 160 159 159 160 154 136 110 99 129 140 134 135 136 130 127 126 121 118 112 105 105 108 109 107 106 105 104 104 103 103 105 104 100 100 100 99 99 97 93 93 95 97 101 105 109 114 118 118 116 115 113 114 116 117 118 125 134 142 157 181
62 120 142 103 4 95 126 122 167 181 86 85 57 24 14 343 332 326 285 158 33 271 203 154 154 159 158 157 156 153 146 133 114 100 120 129 125 125 124 124 127 126 123 122 118 112 111 115 117 117 114 111 109 107 105 106 107 106 103 102 100 98 97 95 92 92 92 91 93 96 98 101 103 106 112 116 115 115 116 112 109 110 112 110 107 106
57 36 305 185 112 26 133 129 156 177 142 73 336 359 20 302 286 276 258 231 57 231 186 157 156 163 162 157 154 151 147 142 139 138 131 127 124 115 108 111 117 118 117 117 119 118 117 116 117 118 117 114 111 109 108 108 108 105 102 99 98 96 93 91 89 89 87 85 85 86 88 91 94 97 101 105 106 109 110 108 107 109 110 107 102 99
56 49 12 153 112 132 211 184 173 164 108 18 322 324 340 317 239 218 231 16 31 287 183 161 160 167 166 161 158 157 157 156 158 159 146 134 127 118 112 109 109 112 111 112 116 118 117 117 117 116 114 111 108 108 108 108 106 103 98 94 95 93 89 89 91 92 90 87 87 89 88 87 91 96 100 101 102 104 104 102 102 103 101 99 96 94
29 31 25 80 107 139 218 212 153 98 71 3 323 321 328 348 140 198 251 25 17 309 194 167 166 167 163 163 165 168 173 169 162 154 139 128 119 110 111 113 114 116 114 113 114 114 116 118 116 110 109 109 108 109 109 107 103 100 96 94 91 87 86 89 93 95 95 92 91 92 90 87 88 92 99 103 104 104 104 102 100 98 95 93 91 88
19 18 21 54 85 74 222 203 128 88 59 348 322 317 315 279 172 217 331 13 343 301 219 179 174 167 161 166 172 173 164 134 140 143 140 137 131 119 115 118 118 117 115 115 116 115 114 114 111 106 105 108 110 110 109 107 102 96 92 91 86 81 85 92 95 96 97 95 93 91 90 89 88 90 95 100 102 100 97 95 95 95 97 99 99 95
26 24 27 34 54 45 98 168 106 127 80 346 319 307 303 267 198 13 344 309 296 294 253 195 179 168 161 157 148 119 92 108 126 136 139 136 130 122 122 124 121 117 115 114 114 113 110 106 104 102 102 106 110 110 109 109 104 96 92 89 84 85 91 94 95 96 95 94 94 93 92 92 91 91 91 93 96 95 92 90 91 94 99 105 108 108
355 353 42 48 19 357 106 81 74 133 53 353 330 316 360 2 339 335 322 300 280 287 263 208 178 170 160 139 115 110 118 125 132 139 139 135 129 126 128 130 125 119 117 115 115 115 111 104 98 97 99 106 112 111 112 113 108 101 97 94 92 96 98 96 98 100 98 97 96 97 99 98 97 95 91 88 88 88 87 86 87 91 99 105 107 106
343 334 33 71 266 320 38 66 52 13 353 349 347 1 15 346 315 298 303 302 309 306 260 209 168 152 150 141 134 136 143 148 150 148 141 131 125 123 123 121 118 118 120 118 117 118 115 110 104 101 102 108 115 116 116 114 111 106 103 101 102 101 98 97 101 102 101 102 101 101 104 107 110 108 100 92 88 86 85 86 86 89 95 98 99 97
5 334 357 30 64 21 16 30 38 6 338 350 9 358 332 332 324 303 290 283 302 333 269 204 161 142 150 150 144 147 155 160 160 156 147 136 134 136 135 133 131 129 125 122 122 123 120 116 114 110 106 107 112 115 113 113 111 108 107 109 108 103 99 98 99 98 98 99 101 101 102 107 115 119 115 105 96 91 90 88 88 91 93 91 89 86
12 309 334 45 134 122 43 23 17 10 5 11 25 13 343 351 352 338 328 321 327 337 330 215 151 152 154 143 137 147 164 166 161 158 152 146 148 150 144 141 141 138 130 127 129 129 126 122 120 117 113 111 112 112 112 113 112 108 108 111 108 102 99 97 95 94 92 90 92 93 95 99 104 112 120 117 106 99 96 90 87 89 90 86 82 78
140 178 165 97 156 176 87 59 41 27 22 16 23 42 27 18 17 13 12 14 360 355 36 71 97 121 113 96 104 116 119 133 147 153 154 151 151 151 147 143 143 141 136 137 140 139 136 131 127 125 123 120 118 116 115 118 118 115 116 117 109 103 101 98 95 91 85 81 79 78 79 84 87 94 108 116 115 111 103 93 87 86 82 77 75 72
163 210 226 77 102 82 77 95 88 22 30 29 33 44 33 23 28 29 29 34 30 29 58 75 74 80 82 76 77 76 62 46 52 76 95 112 122 131 139 143 143 141 140 143 147 150 146 140 136 136 133 127 124 123 122 122 125 129 135 134 127 123 118 111 103 93 82 76 75 73 72 77 81 85 95 104 114 118 109 97 89 84 79 74 69 67
303 280 336 6 87 108 101 114 185 221 53 43 41 46 44 38 43 37 31 38 42 39 51 68 71 79 94 99 98 94 80 60 66 80 74 57 61 80 110 135 139 139 142 148 155 159 157 150 146 143 138 135 134 133 131 130 131 134 140 143 142 138 130 121 112 101 91 84 80 79 80 85 90 97 106 113 117 113 106 104 103 96 90 84 78 76
289 148 130 282 164 119 67 43 313 241 82 53 37 35 37 46 59 56 43 39 41 39 45 63 71 75 80 92 129 143 144 152 158 150 145 155 157 153 156 161 154 146 147 153 159 163 164 162 159 156 151 149 149 145 140 138 138 137 136 139 141 138 130 123 117 110 105 100 95 93 94 98 103 105 113 127 132 119 107 102 101 100 98 91 84 81
349 101 14 328 95 72 47 61 79 50 77 73 24 13 14 21 51 69 66 57 51 45 46 58 71 84 80 65 95 157 166 169 168 164 160 161 162 164 171 174 168 159 157 160 166 169 166 163 165 165 162 161 159 154 148 145 143 142 140 139 140 138 133 130 128 125 123 120 118 117 114 113 113 114 116 123 132 133 126 115 104 97 92 88 92 98
Height
787 797 802 799 797 796 796 793 792 794 795 799 804 808 812 814 817 815 817 818 814 818 824 819 820 823 822 821 819 818 819 822 824 825 826 827 828 830 831 832 832 833 832 832 835 838 840 842 844 846 848 849 851 853 854 855 857 858 859 861 862 864 865 865 866 867 868 869 870 871 872 873 873 874 875 876 877 878 879 880 881 882 883 884 884 885
790 801 800 792 793 793 793 792 792 794 796 798 802 809 813 814 819 816 816 819 815 820 826 820 821 823 821 822 821 818 821 822 823 825 826 827 828 829 830 832 832 831 830 832 835 837 839 841 843 846 847 849 850 852 853 855 856 858 859 860 862 863 864 865 866 867 868 869 869 870 871 872 873 874 875 876 877 878 879 880 881 882 883 884 885 886
799 800 793 789 793 794 794 793 793 795 797 799 800 807 814 815 818 820 818 818 816 821 828 826 827 827 822 821 822 820 820 819 819 821 824 825 828 829 830 831 831 832 832 832 834 836 838 840 842 845 846 848 850 851 853 854 856 857 858 860 861 862 864 865 866 867 868 868 869 870 871 872 873 874 875 876 877 878 879 880 881 882 883 884 885 886
804 797 787 788 793 794 795 795 794 795 797 799 800 805 812 814 818 825 826 821 817 820 826 828 830 831 827 824 825 823 820 818 818 820 821 822 825 827 827 828 830 831 833 832 832 834 837 839 841 843 845 847 849 851 852 853 855 856 857 859 860 862 863 865 866 867 868 868 869 870 871 872 873 874 875 876 877 878 879 880 881 882 883 884 885 886
797 791 786 789 794 793 794 796 795 796 798 800 800 800 807 811 812 818 823 822 821 822 822 829 838 837 832 831 829 824 821 821 820 821 823 823 822 824 825 826 828 829 830 832 832 833 835 838 840 842 844 847 848 849 851 852 854 855 856 858 859 861 863 864 866 867 868 868 869 870 871 872 873 874 875 876 878 878 879 880 881 882 883 884 885 886
791 789 787 791 794 793 794 796 794 794 798 801 799 796 799 805 808 815 820 821 830 834 824 828 844 843 833 832 829 826 826 824 822 822 824 824 823 824 827 827 827 827 828 829 831 832 834 836 839 842 843 845 847 848 849 851 853 854 856 857 859 861 862 864 865 866 868 869 869 870 871 872 873 874 875 876 877 878 879 880 881 882 883 884 885 886
790 789 788 790 793 794 795 795 793 793 799 802 796 791 795 800 806 816 818 819 832 836 822 823 840 845 837 834 828 825 828 825 822 823 822 823 824 825 826 826 826 827 827 828 829 830 833 835 838 840 842 844 845 846 849 850 852 854 855 857 858 860 862 864 865 866 868 869 870 870 871 872 873 874 875 876 877 878 879 880 881 882 883 884 884 885
788 791 792 791 792 795 796 795 792 791 797 801 794 790 796 800 806 812 815 819 824 826 825 826 834 842 841 833 826 824 830 829 825 824 822 821 823 823 823 824 825 825 826 827 828 829 831 833 836 838 840 842 843 846 847 849 851 853 854 856 858 860 862 863 865 866 867 868 870 871 872 873 874 875 876 876 877 878 879 880 881 882 883 884 884 885
786 791 793 791 793 795 792 790 789 788 795 799 792 791 794 798 803 805 811 819 820 826 838 834 830 840 843 831 824 827 833 832 826 823 822 820 821 821 822 822 823 823 823 824 826 827 829 831 833 835 838 840 843 844 846 848 850 852 853 855 857 859 861 863 864 865 867 868 869 871 872 873 874 875 876 877 878 878 879 880 881 882 882 883 884 885
785 786 785 787 791 790 787 787 786 787 794 794 790 792 795 799 803 805 811 818 824 833 839 834 828 838 846 836 829 833 834 830 824 819 818 818 818 819 820 820 821 822 823 823 823 825 827 829 831 834 837 840 842 843 845 847 849 851 853 854 856 858 860 862 863 865 866 868 869 870 872 872 874 875 876 877 878 878 879 880 881 882 882 883 884 885
783 782 781 784 785 782 782 786 786 786 789 789 792 797 803 807 808 811 814 818 833 839 829 823 822 830 843 837 827 827 824 821 821 819 817 816 816 817 817 818 819 820 822 822 822 823 825 828 831 834 837 839 841 843 844 847 848 850 852 853 855 857 858 860 862 864 866 867 869 870 871 872 873 874 876 877 878 878 879 880 881 882 882 883 884 885
785 786 785 780 778 778 782 788 789 786 784 788 794 800 811 820 819 824 827 828 841 841 822 814 817 828 840 831 817 813 811 812 817 817 815 814 815 815 815 815 816 818 820 821 822 823 825 828 831 833 836 838 840 842 843 845 847 849 851 852 854 856 857 859 861 863 865 866 868 869 871 872 873 874 875 876 877 878 879 880 881 882 882 883 884 884
787 785 783 779 775 776 783 791 795 791 786 790 796 800 817 835 839 843 844 840 838 830 817 812 818 831 832 818 810 808 805 808 810 810 810 809 811 812 813 813 813 815 817 819 820 822 824 826 829 832 835 837 839 841 842 844 846 847 849 851 853 855 856 858 860 862 864 865 867 868 870 871 872 874 875 876 877 877 878 879 880 881 882 883 883 884
791 786 782 782 779 774 777 790 801 801 793 793 797 800 816 835 850 857 852 844 835 822 813 810 819 831 822 810 808 806 802 801 804 807 806 805 806 809 810 810 811 813 815 816 818 820 822 824 826 830 832 835 837 839 842 843 845 846 848 850 852 854 855 857 859 861 862 864 866 867 869 870 872 873 874 875 876 877 878 879 880 881 882 882 883 884
799 797 783 779 779 773 775 781 787 793 794 792 788 791 803 814 830 842 840 835 829 822 820 819 825 830 820 811 807 801 799 797 798 804 805 805 806 806 808 809 810 812 813 815 816 818 820 822 824 827 830 833 835 838 840 842 843 845 847 849 851 853 855 857 858 860 861 863 865 866 868 869 871 872 873 874 875 876 877 878 879 880 881 882 883 883
800 796 775 771 774 770 774 775 773 784 796 793 784 790 799 795 801 817 821 818 817 824 832 828 825 821 811 806 800 796 799 797 798 804 806 808 808 807 810 811 810 811 812 814 815 816 818 820 823 826 828 831 834 837 839 840 842 844 845 848 850 852 854 856 857 859 860 862 863 865 867 868 870 871 872 873 874 875 876 877 878 879 880 881 882 883
799 790 771 772 774 767 769 770 770 779 790 794 794 797 794 782 787 809 819 816 815 826 833 827 821 817 810 806 799 797 800 799 801 805 806 809 809 809 810 810 810 810 810 812 813 815 817 819 822 824 827 830 832 835 837 838 840 842 844 846 849 851 853 855 856 858 860 861 862 864 865 867 869 870 871 872 873 874 875 876 877 878 880 880 881 882
792 788 773 772 775 769 765 767 769 770 775 791 798 790 785 787 791 801 818 827 826 829 830 825 822 820 820 818 807 801 803 802 802 804 807 809 810 810 810 809 809 809 809 811 812 813 816 818 820 823 825 828 830 833 834 836 838 841 843 845 847 849 851 853 855 857 859 860 861 863 864 866 868 869 870 871 872 873 874 875 877 878 879 880 881 882
788 789 777 770 774 772 766 771 780 775 769 778 783 775 782 801 805 804 816 826 829 833 832 828 826 820 816 816 810 805 805 804 803 804 806 809 809 809 809 809 809 809 810 812 812 814 816 817 819 821 824 826 828 831 833 835 838 840 842 844 845 848 849 852 854 856 858 859 861 862 863 865 866 868 869 870 871 872 873 875 876 877 878 879 880 881
786 792 785 772 771 773 770 775 785 784 777 775 776 775 779 790 796 800 805 805 814 830 833 831 833 820 805 804 804 802 801 802 803 804 805 806 807 807 807 808 809 810 811 812 813 815 815 817 819 820 822 825 827 830 832 834 837 838 841 843 845 847 848 851 853 854 856 858 860 861 862 864 865 867 868 869 871 872 873 874 875 876 877 878 879 880
785 792 790 777 772 776 777 776 775 777 780 781 783 785 785 786 787 792 799 798 803 820 827 830 829 813 800 802 801 798 798 798 800 802 804 805 805 806 807 808 809 810 811 812 813 814 815 817 818 819 822 824 826 829 831 833 835 837 840 842 843 846 847 849 851 852 854 856 858 860 861 863 864 866 867 868 870 871 872 873 874 875 876 877 878 879
785 790 790 781 777 777 775 772 768 767 769 773 778 780 781 785 788 797 810 806 799 807 815 820 819 808 802 803 801 798 797 796 797 800 803 804 805 807 808 808 810 811 811 812 812 813 814 816 817 819 821 823 825 828 829 832 834 836 839 840 842 844 846 848 850 851 853 855 857 859 861 862 863 864 866 867 869 870 871 872 873 874 875 876 877 878
781 787 790 784 777 773 771 771 771 769 765 765 770 772 772 776 780 792 807 806 803 808 810 812 815 810 804 801 799 799 797 795 796 798 801 804 804 807 808 808 809 811 812 812 812 813 815 816 817 819 820 822 824 826 827 829 832 834 837 839 841 842 844 846 848 850 852 854 856 858 860 861 862 863 865 866 867 868 870 871 872 873 874 875 876 877
781 790 792 785 775 770 768 769 770 769 768 769 771 771 771 773 772 778 787 790 798 807 807 812 817 810 803 801 799 799 798 798 798 798 801 804 805 807 808 808 809 811 813 813 813 814 815 816 818 819 820 822 823 824 826 827 830 832 835 837 839 841 842 844 847 849 851 852 854 856 858 859 861 862 864 865 866 867 868 870 870 871 873 874 875 876
785 794 793 788 788 787 782 779 776 771 770 774 777 776 775 775 774 778 783 786 795 803 803 806 811 807 803 803 801 801 801 802 802 801 803 805 806 808 808 808 810 812 814 814 815 815 815 816 818 819 820 821 821 822 824 825 828 831 833 836 838 840 842 844 846 848 850 852 853 855 856 858 860 861 862 863 864 865 867 868 869 870 871 873 874 875
786 796 795 791 795 799 797 793 788 783 779 778 780 780 778 776 774 777 786 794 800 806 803 798 803 809 809 806 805 803 802 804 806 805 805 806 808 808 809 810 811 812 814 816 816 816 816 817 818 819 820 820 820 821 822 824 827 829 832 835 837 840 842 844 846 848 849 851 852 854 855 856 858 859 860 861 863 864 865 867 868 869 870 871 872 874
786 794 796 794 792 793 795 794 792 789 786 782 781 781 779 779 775 774 784 792 794 802 805 797 801 813 814 809 807 804 803 806 809 808 808 809 809 809 810 811 812 813 814 815 816 817 817 817 818 819 820 820 820 821 823 824 826 828 831 833 836 839 841 843 845 847 849 850 852 853 854 855 856 857 858 859 861 862 864 865 866 867 868 869 870 872
785 792 795 794 793 792 793 793 792 791 789 786 785 783 781 783 780 776 781 784 784 795 802 798 802 810 809 806 806 804 804 807 809 808 808 809 809 810 811 812 814 815 815 816 817 817 817 817 818 819 820 820 821 822 823 825 827 828 830 833 836 838 840 841 843 845 846 848 850 852 853 853 854 855 856 857 859 860 862 863 864 865 866 867 868 870
786 793 794 793 793 793 791 789 788 789 790 789 789 786 784 786 784 780 783 783 781 787 791 792 799 802 798 800 802 801 803 806 807 807 806 808 809 810 811 812 813 815 816 817 818 817 816 817 817 819 820 821 822 823 823 825 827 829 831 833 836 837 839 841 842 843 844 846 848 850 851 852 852 853 854 855 856 858 859 861 862 863 864 865 866 867
788 793 795 795 794 790 788 788 786 786 788 788 789 788 787 788 787 786 789 788 785 788 788 788 796 796 791 793 797 797 799 802 804 805 806 808 810 811 812 812 813 815 816 817 818 817 817 816 817 819 820 822 823 823 824 825 827 829 831 833 835 836 837 839 841 843 845 845 846 848 850 851 851 852 853 853 854 855 857 858 860 861 862 863 864 865
787 793 798 795 792 791 789 787 787 788 789 787 788 789 788 789 790 790 792 790 789 795 794 791 798 799 790 788 793 795 797 800 803 805 807 808 810 811 812 813 814 816 817 817 818 818 817 817 818 819 820 822 823 823 824 825 827 829 830 832 834 835 836 837 840 843 845 845 845 846 848 849 849 850 851 852 853 853 854 856 858 859 860 861 862 862
788 794 796 791 792 795 792 789 790 789 786 785 789 794 795 794 793 792 793 792 791 795 798 798 799 796 788 788 793 796 797 800 804 805 807 808 809 810 813 814 816 817 818 818 818 818 818 819 820 820 821 822 823 824 825 826 828 830 831 832 834 835 836 837 839 842 844 844 844 844 845 846 847 848 849 850 851 851 852 854 855 857 858 859 860 861
797 796 795 794 796 799 796 792 788 787 791 797 799 801 802 799 795 793 793 792 789 789 794 797 793 787 786 790 795 797 799 801 804 804 805 807 808 810 813 815 817 818 819 819 819 819 820 821 822 823 824 824 824 825 826 827 829 831 832 834 835 837 838 839 841 842 843 843 843 843 843 845 846 847 848 848 849 849 850 852 853 854 856 857 858 859
801 799 801 802 799 800 799 790 787 796 809 811 803 799 801 801 798 797 794 791 789 787 789 790 788 786 788 791 795 799 801 801 802 803 804 806 808 811 813 815 818 820 820 820 821 822 822 823 824 825 826 826 827 827 827 828 830 832 834 836 838 840 841 841 842 843 844 844 844 843 844 845 845 846 847 847 848 848 849 850 852 853 854 855 856 857
799 800 806 808 802 800 797 794 803 816 815 804 797 796 798 798 797 797 795 792 790 790 789 789 789 788 788 790 793 798 800 801 803 804 805 807 808 811 813 816 819 821 822 823 823 824 824 825 826 826 827 828 830 830 830 830 831 834 837 839 840 842 843 843 842 844 845 845 845 845 845 845 845 846 846 847 848 848 849 850 851 852 853 854 856 857
798 800 806 811 810 805 799 802 815 818 805 796 797 796 795 796 796 797 798 794 790 790 789 789 790 790 789 791 794 797 800 802 806 808 808 808 810 811 813 816 819 821 823 824 825 826 827 827 827 828 829 830 832 833 833 834 835 837 839 841 842 843 844 845 845 846 847 847 847 847 847 847 847 847 847 848 848 849 850 851 852 852 853 854 855 856
798 799 800 808 814 811 805 805 807 806 805 804 802 798 799 802 801 803 803 795 789 789 788 788 792 793 792 793 795 798 801 806 812 815 812 811 812 813 814 816 819 821 823 825 827 829 830 830 830 831 832 833 834 835 836 838 839 839 841 844 846 846 846 846 847 848 848 848 848 848 847 847 848 847 847 848 849 850 851 852 853 853 853 854 855 855
800 800 798 803 812 813 810 810 809 811 814 812 804 799 801 801 801 805 805 797 790 789 786 787 793 795 794 796 798 801 804 812 821 821 815 813 815 815 816 819 821 823 825 827 829 830 831 832 832 832 833 834 835 837 838 840 841 841 843 846 847 847 847 848 849 850 849 849 848 848 848 848 848 848 849 850 851 852 852 853 854 854 854 854 854 854
801 803 800 801 810 813 810 811 814 816 815 812 805 800 799 800 801 803 804 800 795 791 787 787 792 794 794 797 800 801 806 815 823 820 815 815 816 816 819 821 823 826 827 828 831 832 833 834 834 835 835 835 837 838 839 841 842 843 845 846 847 848 848 849 851 851 851 850 850 850 851 851 851 851 851 852 852 853 854 855 855 855 855 855 854 853
803 804 804 805 811 814 811 810 812 812 812 812 808 801 798 798 799 805 809 805 798 794 790 788 791 793 795 798 800 802 804 809 813 814 813 815 817 819 820 822 825 827 828 830 832 833 834 835 836 838 838 838 839 840 841 843 844 845 846 848 848 849 850 851 852 852 853 853 853 853 854 854 854 854 853 853 854 854 854 855 855 855 855 855 854 853
813 812 813 812 813 814 814 813 812 811 812 812 809 803 799 798 800 808 813 808 801 797 792 789 791 792 794 797 800 802 803 803 805 808 810 812 817 819 822 824 826 828 830 831 832 834 836 837 838 839 840 840 840 842 843 844 845 846 848 849 849 850 851 852 853 853 853 854 854 855 855 855 855 856 855 855 855 855 855 855 855 855 855 856 856 856
818 818 818 816 817 819 817 814 813 814 815 814 810 802 798 800 805 810 809 805 804 801 794 791 792 793 795 799 801 803 806 806 807 810 811 813 816 819 822 825 827 829 831 832 834 835 837 839 840 840 841 842 843 844 845 845 847 848 849 850 851 852 853 853 854 854 854 854 855 855 856 856 857 857 857 857 856 856 856 857 857 858 858 859 859 860
819 818 819 820 822 822 818 816 819 819 817 815 810 803 802 807 811 812 808 804 802 800 796 794 794 793 795 799 802 806 810 811 812 813 814 815 816 819 823 827 828 830 832 833 835 837 838 840 842 842 843 845 845 846 847 847 848 850 851 852 853 854 854 855 855 855 855 856 856 857 857 857 858 858 858 858 858 858 858 859 859 860 861 862 862 862
819 819 820 820 821 820 818 820 823 822 819 817 815 813 813 815 814 813 811 805 800 799 798 797 796 796 797 800 803 807 811 813 814 814 815 816 818 820 824 828 830 831 833 835 836 838 839 841 843 844 846 847 847 848 849 849 849 851 852 853 854 855 855 856 856 856 857 857 857 858 858 859 859 859 859 859 859 859 860 860 861 861 862 862 862 862
820 819 819 819 820 821 821 820 821 821 820 819 818 818 818 815 813 812 810 806 802 800 799 799 800 800 800 801 803 806 809 811 812 813 814 817 820 822 824 827 830 832 834 836 838 839 840 842 844 845 847 848 848 849 849 850 851 851 852 854 854 855 856 856 856 857 857 858 858 858 859 859 859 859 859 859 860 860 860 861 861 862 862 862 861 861
820 820 820 819 820 822 822 821 821 822 821 820 819 819 818 815 813 811 809 807 805 803 801 801 802 802 802 804 806 810 811 811 810 811 813 815 819 823 823 825 828 831 833 836 838 839 841 842 843 845 847 848 849 849 850 850 851 852 853 854 855 855 856 856 856 857 857 857 858 858 858 859 859 859 859 859 860 860 860 861 861 861 861 861 861 860
820 820 820 819 820 822 823 823 823 823 823 821 820 819 818 816 814 812 810 809 808 805 803 803 804 805 805 808 812 816 817 816 815 815 815 816 818 822 824 825 827 830 832 835 838 839 840 842 843 845 846 848 849 849 850 851 852 852 854 854 855 856 856 856 856 856 857 857 857 857 858 858 858 859 859 859 860 860 860 860 861 860 861 860 860 860
819 818 819 820 821 821 822 823 824 824 823 821 820 820 820 818 816 814 812 810 809 807 806 806 808 809 810 812 815 818 820 823 823 822 822 822 822 824 826 827 828 830 832 835 837 839 841 843 844 846 847 848 849 850 851 852 852 853 854 854 855 856 856 856 857 857 857 858 857 857 857 857 858 858 858 859 859 860 860 861 861 861 861 861 861 860
820 818 820 822 820 820 822 824 824 823 822 821 821 822 822 820 818 816 814 812 811 811 810 810 812 813 814 814 815 817 821 825 827 827 829 830 830 832 834 834 833 833 833 835 837 839 842 844 846 848 849 850 851 851 852 852 853 854 855 855 856 856 857 857 858 858 859 859 859 859 859 858 858 858 858 859 860 860 860 861 861 861 862 861 861 861
821 820 822 822 820 821 823 824 824 824 823 824 824 824 823 821 819 818 818 816 816 815 814 814 815 816 817 816 816 817 820 822 825 828 831 831 831 835 838 839 837 836 836 837 839 841 842 844 846 848 850 851 852 852 853 854 854 855 856 857 857 857 858 858 859 859 860 860 860 860 860 859 859 859 859 860 860 861 861 861 861 862 862 862 862 861
822 823 823 821 821 824 825 825 826 825 824 826 826 824 824 822 820 820 820 820 820 819 818 817 818 819 819 819 819 819 820 822 825 828 829 830 831 833 836 838 837 835 835 838 841 843 844 845 848 849 851 851 852 853 853 854 855 856 857 857 858 859 859 859 860 860 860 861 861 861 861 861 861 860 860 860 860 861 861 862 862 862 862 862 862 861